Winona, MN

7:20 PM CDT on May 22, 2018 (GMT -0500)
Winona Municipal-Conrad

Weather History for KONA - May, 2013

Change the Weather History Date:

Sunday, May 5, 2013

  Actual Average Record
Temperature  
Mean Temperature 54 °F -  
Max Temperature 69 °F 68 °F 87 °F (2000)
Min Temperature 39 °F 46 °F 33 °F (2004)
Degree Days  
Heating Degree Days 11    
Growing Degree Days 4 (Base 50)    
Moisture  
Dew Point 41 °F    
Average Humidity 66    
Maximum Humidity 87    
Minimum Humidity 43    
Precipitation  
Precipitation 0.00 in - - ()
Sea Level Pressure  
Sea Level Pressure 30.09 in    
Wind  
Wind Speed 5 mph (NNW)    
Max Wind Speed 13 mph    
Max Gust Speed -    
Visibility 10 miles    
Events      
Averages and records for this station are not official NWS values.
T = Trace of Precipitation, MM = Missing Value Source: NWS Daily Summary

Daily Weather History Graph

Daily Weather History Graph

Search for Another Location

Airport or City:

Astronomy

May. 05, 2013 Rise Set
Actual Time 5:52 AM CDT 8:15 PM CDT
Civil Twilight 5:20 AM CDT 8:47 PM CDT
Nautical Twilight 4:40 AM CDT 9:28 PM CDT
Astronomical Twilight 3:55 AM CDT 10:13 PM CDT
Moon 3:32 AM CDT (5/5) 4:07 PM CDT (5/5)
Length of Visible Light 15h 27m
Length of Day
14h 23m
Waning Crescent, 18% of the Moon is Illuminated
May 5
Waning Crescent
May 9
New
May 17
First Quarter
May 24
Full
May 31
Last Quarter

Hourly Weather History & Observations

Time (CDT) Temp. Windchill Dew Point Humidity Pressure Visibility Wind Dir Wind Speed Gust Speed Precip Events Conditions
12:16 AM 46.4 °F 44.3 °F 37.4 °F 71% 30.12 in 10.0 mi North 4.6 mph - N/A   Scattered Clouds
12:35 AM 46.4 °F - 37.4 °F 71% 30.12 in 10.0 mi Calm Calm - N/A   Clear
12:56 AM 46.4 °F 44.3 °F 37.4 °F 71% 30.12 in 10.0 mi NNW 4.6 mph - N/A   Clear
1:16 AM 46.4 °F 44.3 °F 37.4 °F 71% 30.12 in 10.0 mi North 4.6 mph - N/A   Clear
1:35 AM 46.4 °F 43.5 °F 39.2 °F 76% 30.12 in 10.0 mi NNW 5.8 mph - N/A   Clear
1:56 AM 44.6 °F 42.2 °F 37.4 °F 76% 30.12 in 10.0 mi NNW 4.6 mph - N/A   Clear
2:16 AM 42.8 °F 39.3 °F 37.4 °F 81% 30.11 in 10.0 mi NNW 5.8 mph - N/A   Clear
2:35 AM 42.8 °F 41.1 °F 35.6 °F 76% 30.11 in 10.0 mi North 3.5 mph - N/A   Clear
2:56 AM 42.8 °F 39.3 °F 35.6 °F 76% 30.11 in 10.0 mi NNW 5.8 mph - N/A   Clear
3:16 AM 42.8 °F 40.1 °F 35.6 °F 76% 30.11 in 10.0 mi NNW 4.6 mph - N/A   Clear
3:35 AM 42.8 °F 39.3 °F 35.6 °F 76% 30.11 in 10.0 mi NNW 5.8 mph - N/A   Clear
3:56 AM 41.0 °F 37.1 °F 35.6 °F 81% 30.11 in 10.0 mi NNW 5.8 mph - N/A   Clear
4:16 AM 41.0 °F 38.0 °F 35.6 °F 81% 30.10 in 10.0 mi NNW 4.6 mph - N/A   Clear
4:35 AM 41.0 °F 36.4 °F 35.6 °F 81% 30.10 in 10.0 mi NNW 6.9 mph - N/A   Clear
4:56 AM 41.0 °F 39.0 °F 35.6 °F 81% 30.11 in 10.0 mi North 3.5 mph - N/A   Clear
5:16 AM 41.0 °F 35.8 °F 35.6 °F 81% 30.11 in 10.0 mi NNW 8.1 mph - N/A   Clear
5:35 AM 39.2 °F 35.0 °F 35.6 °F 87% 30.12 in 10.0 mi NNW 5.8 mph - N/A   Clear
5:56 AM 41.0 °F 38.0 °F 35.6 °F 81% 30.12 in 10.0 mi NNW 4.6 mph - N/A   Clear
6:16 AM 39.2 °F 35.0 °F 35.6 °F 87% 30.12 in 10.0 mi North 5.8 mph - N/A   Clear
6:35 AM 41.0 °F 37.1 °F 35.6 °F 81% 30.13 in 10.0 mi NNW 5.8 mph - N/A   Clear
6:56 AM 41.0 °F 35.8 °F 33.8 °F 76% 30.13 in 10.0 mi NNW 8.1 mph - N/A   Clear
7:16 AM 41.0 °F 35.8 °F 33.8 °F 76% 30.13 in 10.0 mi North 8.1 mph - N/A   Clear
7:36 AM 41.0 °F 36.4 °F 35.6 °F 81% 30.13 in 10.0 mi NNW 6.9 mph - N/A   Clear
7:56 AM 41.0 °F 35.8 °F 33.8 °F 76% 30.13 in 10.0 mi North 8.1 mph - N/A   Clear
8:16 AM 42.8 °F 40.1 °F 35.6 °F 76% 30.13 in 10.0 mi North 4.6 mph - N/A   Clear
8:36 AM 42.8 °F 40.1 °F 35.6 °F 76% 30.14 in 10.0 mi North 4.6 mph - N/A   Clear
8:56 AM 44.6 °F 40.2 °F 37.4 °F 76% 30.14 in 10.0 mi NNW 8.1 mph - N/A   Clear
9:16 AM 46.4 °F 43.5 °F 37.4 °F 71% 30.13 in 10.0 mi NNW 5.8 mph - N/A   Clear
9:36 AM 48.2 °F - 37.4 °F 66% 30.13 in 10.0 mi NW 5.8 mph - N/A   Clear
9:56 AM 48.2 °F - 37.4 °F 66% 30.13 in 10.0 mi WNW 3.5 mph - N/A   Clear
10:16 AM 50.0 °F - 37.4 °F 62% 30.13 in 10.0 mi NNW 4.6 mph - N/A   Clear
10:36 AM 51.8 °F - 39.2 °F 62% 30.13 in 10.0 mi North 3.5 mph - N/A   Clear
11:01 AM 51.8 °F - 41.0 °F 67% 30.13 in 10.0 mi North 4.6 mph - N/A   Clear
11:16 AM 53.6 °F - 41.0 °F 62% 30.13 in 10.0 mi NNW 5.8 mph - N/A   Clear
11:36 AM 53.6 °F - 41.0 °F 62% 30.12 in 10.0 mi North 3.5 mph - N/A   Clear
11:56 AM 55.4 °F - 42.8 °F 63% 30.12 in 10.0 mi North 5.8 mph - N/A   Clear
12:15 PM 55.4 °F - 42.8 °F 63% 30.12 in 10.0 mi North 4.6 mph - N/A   Clear
12:36 PM 59.0 °F - 44.6 °F 59% 30.11 in 10.0 mi NNW 4.6 mph - N/A   Clear
1:15 PM 60.8 °F - 42.8 °F 52% 30.09 in 10.0 mi NNW 8.1 mph - N/A   Clear
1:36 PM 60.8 °F - 44.6 °F 55% 30.09 in 10.0 mi NW 6.9 mph - N/A   Clear
1:56 PM 62.6 °F - 44.6 °F 52% 30.08 in 10.0 mi NW 6.9 mph - N/A   Clear
2:15 PM 62.6 °F - 44.6 °F 52% 30.08 in 10.0 mi NNW 9.2 mph - N/A   Clear
2:36 PM 62.6 °F - 44.6 °F 52% 30.07 in 10.0 mi NW 8.1 mph - N/A   Clear
2:56 PM 66.2 °F - 46.4 °F 49% 30.06 in 10.0 mi North 4.6 mph - N/A   Clear
3:36 PM 69.8 °F - 48.2 °F 46% 30.05 in 10.0 mi NW 9.2 mph - N/A   Clear
3:56 PM 69.8 °F - 46.4 °F 43% 30.05 in 10.0 mi NNW 10.4 mph - N/A   Clear
4:15 PM 69.8 °F - 46.4 °F 43% 30.04 in 10.0 mi NNW 8.1 mph - N/A   Clear
4:36 PM 69.8 °F - 46.4 °F 43% 30.04 in 10.0 mi NNW 8.1 mph - N/A   Clear
4:56 PM 69.8 °F - 46.4 °F 43% 30.03 in 10.0 mi NNW 12.7 mph - N/A   Clear
5:15 PM 69.8 °F - 46.4 °F 43% 30.03 in 10.0 mi NNW 9.2 mph - N/A   Clear
5:36 PM 69.8 °F - 46.4 °F 43% 30.03 in 10.0 mi NNW 10.4 mph - N/A   Clear
5:56 PM 69.8 °F - 48.2 °F 46% 30.03 in 10.0 mi NNW 9.2 mph - N/A   Clear
6:15 PM 66.2 °F - 46.4 °F 49% 30.03 in 10.0 mi NNW 10.4 mph - N/A   Clear
6:36 PM 66.2 °F - 46.4 °F 49% 30.03 in 10.0 mi NNW 10.4 mph - N/A   Clear
6:56 PM 66.2 °F - 46.4 °F 49% 30.04 in 10.0 mi North 6.9 mph - N/A   Clear
7:15 PM 62.6 °F - 44.6 °F 52% 30.04 in 10.0 mi NNW 9.2 mph - N/A   Clear
7:36 PM 62.6 °F - 44.6 °F 52% 30.04 in 7.0 mi NNW 9.2 mph - N/A   Clear
7:56 PM 62.6 °F - 44.6 °F 52% 30.05 in 10.0 mi NNW 6.9 mph - N/A   Clear
8:15 PM 60.8 °F - 44.6 °F 55% 30.05 in 10.0 mi NNW 6.9 mph - N/A   Clear
8:36 PM 59.0 °F - 44.6 °F 59% 30.05 in 10.0 mi NW 5.8 mph - N/A   Clear
8:56 PM 59.0 °F - 44.6 °F 59% 30.06 in 10.0 mi NW 5.8 mph - N/A   Clear
9:36 PM 59.0 °F - 46.4 °F 63% 30.06 in 10.0 mi NNW 3.5 mph - N/A   Clear
9:56 PM 55.4 °F - 46.4 °F 72% 30.06 in 10.0 mi Calm Calm - N/A   Clear
10:15 PM 55.4 °F - 48.2 °F 77% 30.06 in 10.0 mi Calm Calm - N/A   Clear
10:36 PM 55.4 °F - 46.4 °F 72% 30.06 in 10.0 mi Calm Calm - N/A   Clear
10:56 PM 53.6 °F - 46.4 °F 77% 30.06 in 10.0 mi Calm Calm - N/A   Clear
11:15 PM 53.6 °F - 46.4 °F 77% 30.06 in 10.0 mi Calm Calm - N/A   Clear
11:36 PM 53.6 °F - 46.4 °F 77% 30.06 in 10.0 mi NW 3.5 mph - N/A   Clear
11:56 PM 53.6 °F - 46.4 °F 77% 30.06 in 10.0 mi NW 3.5 mph - N/A   Clear